Погода в Димерсанте

Узбекистан     40°02′19″N   71°03′59″E
темп.,
°C
ветер,
м/с
пор.,
м/с
влажн.,
%
обл.,
%
осадки,
мм/ч
давл.,
гПа
погр.,
м
3 марта, ср
ср323:00+4ю3363100 0.0 102461
02:00+3ююз2272100 0.1 102352
05:00+2юз1172100 0.1 102323
08:00+3зсз2261100 0.0 1023156
11:00+4юз1371100 0.2 1021689
14:00+5всв1171100 0.6 1019736
17:00+3ююв1190100 1.6 1020252
20:00+3ююв4473100 0.6 1023228
4 марта, чт
чт423:00+3ю127297 0.6 102448
02:00+1ю126544 0.0 102422
05:000ю116023 0.0 102322
08:00+3ю115092 0.0 102424
11:00+6с214690 0.0 1020437
14:00+7ссз3257100 0.0 1018681
17:00+7ю3363100 0.2 1020315
20:00+5ю3369100 0.1 1022135
5 марта, пт
пт523:00+4ююв4474100 0.4 1024188
02:00+3юв2183100 1.6 1024155
05:00+2сз3496100 2.1 1026296
08:00+2вюв1290100 2.2 1027195
11:00+4ссз2168100 2.3 1026690
14:00+7ссв335599 0.1 10241116
17:00+7св235293 0.1 10241131
20:00+4св116629 0.0 102835
6 марта, сб
сб623:00+2вюв226115 0.0 102826
02:00+1вюв116651 0.0 102524
05:000юв125958 0.0 102223
08:00+3в125078 0.0 101841
11:00+6с214989 0.0 1012349
14:00+8зсз1141100 0.0 1009485
17:00+8зюз2341100 0.0 1011448
20:00+5ю1159100 0.0 101322
7 марта, вс
вс723:00+5ссз1256100 0.0 101522
02:00+2с116693 0.0 101522
05:00+2з126696 0.0 101622
08:00+3ююз1160100 0.0 101882
11:00+5с2157100 0.0 1017623
14:00+6с3359100 0.0 1015953
17:00+5ссз1163100 0.1 1016780
20:00+4св0071100 0.0 101889